Location: Unspecified
(43.3830°N, 0.0000°E)
Time: 03:52:01
(UTC+00:00)

Explorer 7 - Pass Details

Date: 25 June 2019
Orbit: 485 x 680 km, 50.3° (Epoch: 18 July)

Event Time Altitude Azimuth Distance (km) Brightness Sun altitude
Rises 12:15:59 0° 298° (WNW) 2,895 10.4 69.8°
Reaches altitude 10° 12:18:17 10° 303° (WNW) 2,016 9.7 69.7°
Maximum altitude 12:22:54 58° 23° (NNE) 765 8.2 69.6°
Drops below altitude 10° 12:27:41 10° 102° (ESE) 2,096 9.9 69.3°
Sets 12:30:07 0° 106° (ESE) 3,020 10.6 69.2°
